SIA898 WSSS-VHHH

Flight info

Callsign SIA898
Flight time N/A
Altitude 40000
Route VMR9B VMR M771 DUDIS/K0909F400 M771 DOSUT/N0485F430 M771 DULOP/N0491F410 Q1 CARSO/N0486F430 V551 BETTY
Aircraft A359/H-SDE2E3GHIJ3J4J5LM1ORWXY/LB1D1

Departure

Time 2026-05-07 11:57
Airport Singapore Changi Airport (WSSS)

Arrival

Time N/A
Airport Hong Kong International Airport (VHHH)
Time Latitude Longitude Altitude Speed Heading
2026-05-07 11:07 1.35989 103.99226 37 ft 0 kts 291°
2026-05-07 11:46 1.35984 103.99238 36 ft 4 kts 292°
2026-05-07 11:46 1.35974 103.99263 37 ft 4 kts 292°
2026-05-07 11:46 1.35964 103.99284 35 ft 4 kts 316°
2026-05-07 11:47 1.35944 103.99291 33 ft 4 kts 15°
2026-05-07 11:47 1.35921 103.99283 34 ft 2 kts 23°
2026-05-07 11:47 1.35916 103.99280 34 ft 0 kts 22°
2026-05-07 11:51 1.35922 103.99283 34 ft 4 kts 22°
2026-05-07 11:51 1.35970 103.99303 35 ft 13 kts 22°
2026-05-07 11:52 1.36085 103.99351 37 ft 23 kts 23°
2026-05-07 11:52 1.36254 103.99427 37 ft 29 kts 33°
2026-05-07 11:52 1.36329 103.99563 37 ft 11 kts 109°
2026-05-07 11:52 1.36305 103.99630 37 ft 11 kts 110°
2026-05-07 11:53 1.36271 103.99710 37 ft 14 kts 114°
2026-05-07 11:53 1.36238 103.99784 37 ft 0 kts 114°
2026-05-07 11:56 1.36231 103.99799 37 ft 7 kts 114°
2026-05-07 11:56 1.36195 103.99861 37 ft 14 kts 137°
2026-05-07 11:56 1.36093 103.99854 37 ft 18 kts 201°
2026-05-07 11:56 1.35902 103.99775 35 ft 55 kts 202°
2026-05-07 11:57 1.35396 103.99561 37 ft 117 kts 204°
2026-05-07 11:57 1.34626 103.99236 39 ft 165 kts 202°
2026-05-07 11:57 1.33512 103.98768 416 ft 187 kts 201°
2026-05-07 11:57 1.32311 103.98259 884 ft 199 kts 202°
2026-05-07 11:58 1.30958 103.97674 1402 ft 216 kts 202°
2026-05-07 11:58 1.29532 103.97046 1881 ft 236 kts 203°
2026-05-07 11:58 1.27962 103.96340 2391 ft 255 kts 204°
2026-05-07 11:58 1.26414 103.95639 2823 ft 228 kts 204°
2026-05-07 11:59 1.25059 103.95025 3060 ft 204 kts 204°
2026-05-07 11:59 1.23777 103.94442 3289 ft 200 kts 204°
2026-05-07 11:59 1.22905 103.94046 3469 ft 216 kts 204°
2026-05-07 11:59 1.20914 103.93348 3803 ft 235 kts 184°
2026-05-07 12:00 1.19325 103.93640 4048 ft 236 kts 153°
2026-05-07 12:00 1.18449 103.94283 4191 ft 236 kts 132°
2026-05-07 12:00 1.17694 103.95726 4457 ft 237 kts 102°
2026-05-07 12:00 1.17791 103.97348 4693 ft 239 kts 71°
2026-05-07 12:01 1.18704 103.98700 4934 ft 241 kts 41°
2026-05-07 12:01 1.20178 103.99532 5176 ft 243 kts 23°
2026-05-07 12:01 1.21773 104.00132 5423 ft 245 kts 20°
2026-05-07 12:01 1.23389 104.00701 5669 ft 246 kts 20°
2026-05-07 12:02 1.25011 104.01262 5907 ft 247 kts 18°
2026-05-07 12:02 1.26721 104.01569 6182 ft 260 kts
2026-05-07 12:02 1.28567 104.01699 6648 ft 274 kts
2026-05-07 12:02 1.30505 104.01789 7419 ft 276 kts
2026-05-07 12:03 1.32431 104.01873 8162 ft 282 kts
2026-05-07 12:03 1.34410 104.01954 8942 ft 286 kts
2026-05-07 12:03 1.36413 104.02033 9734 ft 290 kts
2026-05-07 12:03 1.38459 104.02112 10403 ft 298 kts
2026-05-07 12:04 1.40595 104.02182 10772 ft 316 kts
2026-05-07 12:04 1.42824 104.01862 11111 ft 335 kts 345°
2026-05-07 12:04 1.45074 104.01137 11475 ft 350 kts 342°
2026-05-07 12:04 1.47419 104.00355 11915 ft 361 kts 343°
2026-05-07 12:05 1.49833 103.99561 12407 ft 368 kts 343°
2026-05-07 12:05 1.52281 103.98762 12951 ft 374 kts 343°
2026-05-07 12:05 1.54776 103.97951 13547 ft 377 kts 343°
2026-05-07 12:05 1.57284 103.97137 14078 ft 381 kts 343°
2026-05-07 12:06 1.59828 103.96312 14588 ft 384 kts 343°
2026-05-07 12:06 1.62380 103.95485 15098 ft 388 kts 344°
2026-05-07 12:06 1.64927 103.94660 15604 ft 391 kts 344°
2026-05-07 12:06 1.67519 103.93821 16098 ft 394 kts 344°
2026-05-07 12:07 1.70167 103.92963 16616 ft 397 kts 344°
2026-05-07 12:07 1.72786 103.92115 17089 ft 400 kts 344°
2026-05-07 12:07 1.75477 103.91353 17558 ft 403 kts 351°
2026-05-07 12:07 1.78274 103.91017 18052 ft 404 kts 358°
2026-05-07 12:08 1.81079 103.90837 18477 ft 406 kts 358°
2026-05-07 12:08 1.83921 103.90661 18921 ft 409 kts 358°
2026-05-07 12:08 1.86759 103.90483 19340 ft 412 kts 359°
2026-05-07 12:08 1.89630 103.90302 19739 ft 415 kts 359°
2026-05-07 12:09 1.92529 103.90118 20171 ft 417 kts 358°
2026-05-07 12:09 1.95407 103.89935 20594 ft 420 kts 358°
2026-05-07 12:09 1.98325 103.89750 21029 ft 422 kts 358°
2026-05-07 12:09 2.01270 103.89562 21454 ft 425 kts 358°
2026-05-07 12:10 2.04217 103.89375 21885 ft 427 kts 358°
2026-05-07 12:10 2.07205 103.89184 22318 ft 430 kts 358°
2026-05-07 12:10 2.10200 103.88994 22708 ft 433 kts 358°
2026-05-07 12:10 2.13214 103.88802 23084 ft 436 kts 358°
2026-05-07 12:11 2.16263 103.88607 23452 ft 439 kts 358°
2026-05-07 12:11 2.19318 103.88413 23778 ft 442 kts 358°
2026-05-07 12:11 2.22406 103.88216 24102 ft 445 kts 358°
2026-05-07 12:11 2.25500 103.88020 24432 ft 448 kts 358°
2026-05-07 12:12 2.28626 103.87820 24788 ft 450 kts 358°
2026-05-07 12:12 2.31770 103.87620 25146 ft 453 kts 358°
2026-05-07 12:12 2.34889 103.87465 25508 ft 455 kts
2026-05-07 12:12 2.38078 103.87762 25888 ft 455 kts 13°
2026-05-07 12:13 2.41048 103.88744 26280 ft 456 kts 26°
2026-05-07 12:13 2.43862 103.90237 26696 ft 458 kts 31°
2026-05-07 12:13 2.46582 103.91908 27124 ft 461 kts 34°
2026-05-07 12:13 2.49280 103.93677 27552 ft 464 kts 34°
2026-05-07 12:14 2.51976 103.95478 27982 ft 468 kts 35°
2026-05-07 12:14 2.54701 103.97294 28420 ft 471 kts 34°
2026-05-07 12:14 2.57460 103.99113 28860 ft 475 kts 34°
2026-05-07 12:14 2.60207 104.00904 29251 ft 478 kts 34°
2026-05-07 12:15 2.63008 104.02716 29682 ft 482 kts 33°
2026-05-07 12:15 2.65845 104.04543 30055 ft 485 kts 33°
2026-05-07 12:15 2.68683 104.06366 30430 ft 487 kts 33°
2026-05-07 12:15 2.71544 104.08204 30807 ft 489 kts 33°
2026-05-07 12:16 2.74414 104.10048 31155 ft 491 kts 33°
2026-05-07 12:16 2.77288 104.11895 31475 ft 494 kts 33°
2026-05-07 12:16 2.80193 104.13764 31781 ft 496 kts 33°
2026-05-07 12:16 2.83098 104.15633 32080 ft 499 kts 33°
2026-05-07 12:17 2.86032 104.17520 32385 ft 501 kts 34°
2026-05-07 12:17 2.88961 104.19406 32685 ft 503 kts 34°
2026-05-07 12:17 2.91921 104.21311 32973 ft 505 kts 34°
2026-05-07 12:17 2.94867 104.23207 33344 ft 504 kts 34°
2026-05-07 12:18 2.97821 104.25108 33715 ft 504 kts 34°
2026-05-07 12:18 3.00740 104.26987 34007 ft 505 kts 34°
2026-05-07 12:18 3.03704 104.28895 34342 ft 504 kts 34°
2026-05-07 12:18 3.06641 104.30786 34686 ft 503 kts 34°
2026-05-07 12:19 3.09585 104.32681 35033 ft 502 kts 34°
2026-05-07 12:19 3.12525 104.34575 35365 ft 501 kts 34°
2026-05-07 12:19 3.15444 104.36454 35690 ft 500 kts 34°
2026-05-07 12:19 3.18384 104.38348 36019 ft 499 kts 33°
2026-05-07 12:20 3.21273 104.40208 36316 ft 499 kts 33°
2026-05-07 12:20 3.24192 104.42088 36631 ft 498 kts 33°
2026-05-07 12:20 3.27123 104.43976 36930 ft 498 kts 33°
2026-05-07 12:20 3.30039 104.45855 37236 ft 497 kts 33°
2026-05-07 12:21 3.32938 104.47723 37536 ft 496 kts 33°
2026-05-07 12:21 3.35815 104.49576 37816 ft 496 kts 33°
2026-05-07 12:21 3.38706 104.51439 38136 ft 495 kts 33°
2026-05-07 12:21 3.41600 104.53304 38440 ft 494 kts 33°
2026-05-07 12:22 3.44481 104.55160 38687 ft 493 kts 33°
2026-05-07 12:22 3.47370 104.57022 38935 ft 492 kts 33°
2026-05-07 12:22 3.50225 104.58862 39175 ft 490 kts 33°
2026-05-07 12:22 3.53113 104.60724 39424 ft 489 kts 33°
2026-05-07 12:23 3.55969 104.62565 39661 ft 488 kts 33°
2026-05-07 12:23 3.58839 104.64415 39793 ft 489 kts 33°
2026-05-07 12:23 3.61688 104.66251 39812 ft 488 kts 33°
2026-05-07 12:24 3.67360 104.69909 39811 ft 487 kts 33°
2026-05-07 12:24 3.73051 104.73579 39809 ft 486 kts 33°
2026-05-07 12:25 3.78749 104.77254 39810 ft 486 kts 33°
2026-05-07 12:25 3.84423 104.80914 39809 ft 486 kts 33°
2026-05-07 12:26 3.90095 104.84574 39810 ft 486 kts 33°
2026-05-07 12:26 3.95773 104.88237 39810 ft 486 kts 33°
2026-05-07 12:27 4.01501 104.91934 39814 ft 486 kts 33°
2026-05-07 12:27 4.07142 104.95576 39809 ft 486 kts 33°
2026-05-07 12:28 4.12832 104.99249 39812 ft 486 kts 33°
2026-05-07 12:28 4.18485 105.02899 39809 ft 486 kts 33°
2026-05-07 12:29 4.24177 105.06575 39812 ft 486 kts 33°
2026-05-07 12:29 4.29857 105.10244 39813 ft 485 kts 33°
2026-05-07 12:30 4.35503 105.13892 39811 ft 485 kts 33°
2026-05-07 12:30 4.41179 105.17560 39812 ft 486 kts 33°
2026-05-07 12:30 4.44149 105.19175 39816 ft 486 kts 20°
2026-05-07 12:31 4.47412 105.20095 39815 ft 486 kts 13°
2026-05-07 12:31 4.53931 105.21878 39810 ft 486 kts 21°
2026-05-07 12:32 4.60034 105.24767 39813 ft 485 kts 30°
2026-05-07 12:32 4.65801 105.28273 39813 ft 485 kts 33°
2026-05-07 12:33 4.74362 105.33724 39813 ft 485 kts 33°
2026-05-07 12:33 4.80045 105.37288 39813 ft 485 kts 32°
2026-05-07 12:34 4.85735 105.40900 39812 ft 484 kts 33°
2026-05-07 12:34 4.91425 105.44627 39815 ft 490 kts 34°
2026-05-07 12:35 4.97189 105.48405 39814 ft 496 kts 34°
2026-05-07 12:35 5.02992 105.52190 39813 ft 498 kts 33°
2026-05-07 12:36 5.08788 105.55963 39813 ft 498 kts 33°
2026-05-07 12:36 5.14595 105.59744 39812 ft 498 kts 33°
2026-05-07 12:37 5.20401 105.63526 39811 ft 498 kts 33°
2026-05-07 12:37 5.26205 105.67308 39810 ft 498 kts 33°
2026-05-07 12:38 5.31988 105.71077 39812 ft 498 kts 33°
2026-05-07 12:38 5.37802 105.74867 39813 ft 498 kts 33°
2026-05-07 12:39 5.43617 105.78659 39809 ft 498 kts 33°
2026-05-07 12:39 5.49427 105.82447 39809 ft 498 kts 33°
2026-05-07 12:40 5.55266 105.86257 39809 ft 501 kts 34°
2026-05-07 12:40 5.61079 105.90050 39818 ft 502 kts 34°
2026-05-07 12:41 5.66881 105.93837 39809 ft 502 kts 34°
2026-05-07 12:41 5.72795 105.97697 39815 ft 502 kts 34°
2026-05-07 12:42 5.78670 106.01534 39816 ft 501 kts 33°
2026-05-07 12:42 5.84493 106.05337 39815 ft 500 kts 33°
2026-05-07 12:43 5.90282 106.09119 39817 ft 500 kts 33°
2026-05-07 12:43 5.96092 106.12916 39818 ft 500 kts 33°
2026-05-07 12:44 6.01963 106.16754 39817 ft 500 kts 33°
2026-05-07 12:44 6.07802 106.20571 39819 ft 500 kts 33°
2026-05-07 12:45 6.13606 106.24367 39818 ft 500 kts 33°
2026-05-07 12:45 6.19425 106.28173 39818 ft 500 kts 33°
2026-05-07 12:46 6.25268 106.31997 39817 ft 501 kts 33°
2026-05-07 12:46 6.31132 106.35835 39816 ft 502 kts 33°
2026-05-07 12:47 6.36974 106.39660 39818 ft 502 kts 33°
2026-05-07 12:47 6.41858 106.42858 39817 ft 502 kts 33°
2026-05-07 12:48 6.48667 106.47318 39816 ft 502 kts 33°
2026-05-07 12:48 6.54522 106.51155 39818 ft 502 kts 33°
2026-05-07 12:49 6.59426 106.54369 39818 ft 502 kts 33°
2026-05-07 12:49 6.65290 106.58214 39818 ft 503 kts 33°
2026-05-07 12:50 6.71114 106.62033 39821 ft 503 kts 33°
2026-05-07 12:50 6.76990 106.65887 39813 ft 503 kts 33°
2026-05-07 12:51 6.82846 106.69730 39817 ft 503 kts 33°
2026-05-07 12:51 6.88721 106.73586 39816 ft 504 kts 33°
2026-05-07 12:52 6.94583 106.77435 39811 ft 504 kts 33°
2026-05-07 12:52 7.00447 106.81287 39814 ft 505 kts 33°
2026-05-07 12:53 7.06328 106.85156 39814 ft 505 kts 33°
2026-05-07 12:53 7.12214 106.89028 39817 ft 505 kts 33°
2026-05-07 12:54 7.18101 106.92902 39814 ft 505 kts 33°
2026-05-07 12:54 7.23984 106.96776 39816 ft 505 kts 33°
2026-05-07 12:55 7.29860 107.00646 39811 ft 505 kts 33°
2026-05-07 12:55 7.35751 107.04526 39814 ft 506 kts 33°
2026-05-07 12:56 7.41660 107.08420 39813 ft 506 kts 32°
2026-05-07 12:56 7.47512 107.12278 39813 ft 507 kts 33°
2026-05-07 12:57 7.53401 107.16161 39814 ft 506 kts 32°
2026-05-07 12:57 7.59314 107.20062 39814 ft 506 kts 32°
2026-05-07 12:58 7.65214 107.23955 39814 ft 506 kts 32°
2026-05-07 12:58 7.71114 107.27850 39816 ft 506 kts 33°
2026-05-07 12:59 7.77015 107.31746 39814 ft 506 kts 32°
2026-05-07 12:59 7.82824 107.35583 39815 ft 506 kts 32°
2026-05-07 13:00 7.88766 107.39510 39819 ft 506 kts 32°
2026-05-07 13:00 7.94610 107.43372 39817 ft 503 kts 33°
2026-05-07 13:01 8.00500 107.47266 39817 ft 505 kts 32°
2026-05-07 13:01 8.06400 107.51169 39815 ft 508 kts 33°
2026-05-07 13:02 8.12294 107.55069 39816 ft 508 kts 32°
2026-05-07 13:02 8.18133 107.58934 39815 ft 508 kts 33°
2026-05-07 13:03 8.24023 107.62835 39814 ft 508 kts 33°
2026-05-07 13:03 8.29947 107.66758 39816 ft 508 kts 32°
2026-05-07 13:04 8.35821 107.70650 39816 ft 508 kts 32°
2026-05-07 13:04 8.41754 107.74583 39819 ft 508 kts 32°
2026-05-07 13:05 8.47638 107.78489 39818 ft 508 kts 32°
2026-05-07 13:05 8.53500 107.82366 39817 ft 508 kts 32°
2026-05-07 13:06 8.59416 107.86283 39820 ft 508 kts 32°
2026-05-07 13:06 8.65328 107.90204 39817 ft 508 kts 32°
2026-05-07 13:07 8.71226 107.94119 39818 ft 506 kts 32°
2026-05-07 13:07 8.77119 107.98032 39817 ft 506 kts 32°
2026-05-07 13:08 8.82977 108.01923 39817 ft 506 kts 32°
2026-05-07 13:08 8.88870 108.05838 39817 ft 506 kts 32°
2026-05-07 13:09 8.94694 108.09710 39822 ft 506 kts 32°
2026-05-07 13:09 9.00459 108.13543 39822 ft 506 kts 32°
2026-05-07 13:10 9.06315 108.17439 39822 ft 507 kts 32°
2026-05-07 13:10 9.12216 108.21365 39826 ft 507 kts 32°
2026-05-07 13:11 9.18097 108.25281 39827 ft 508 kts 32°
2026-05-07 13:11 9.23992 108.29207 39825 ft 508 kts 32°
2026-05-07 13:12 9.29896 108.33141 39825 ft 507 kts 32°
2026-05-07 13:12 9.35803 108.37078 39825 ft 507 kts 32°
2026-05-07 13:13 9.41712 108.41019 39825 ft 507 kts 32°
2026-05-07 13:13 9.47565 108.44923 39828 ft 508 kts 32°
2026-05-07 13:14 9.53480 108.48871 39825 ft 509 kts 32°
2026-05-07 13:14 9.59385 108.52814 39828 ft 509 kts 32°
2026-05-07 13:15 9.65297 108.56763 39829 ft 509 kts 32°
2026-05-07 13:15 9.71211 108.60715 39829 ft 508 kts 32°
2026-05-07 13:16 9.77107 108.64657 39827 ft 508 kts 32°
2026-05-07 13:16 9.83019 108.68611 39830 ft 508 kts 32°
2026-05-07 13:17 9.88914 108.72556 39831 ft 508 kts 31°
2026-05-07 13:17 9.94827 108.76513 39831 ft 508 kts 32°
2026-05-07 13:18 10.00719 108.80459 39830 ft 508 kts 32°
2026-05-07 13:18 10.06582 108.84387 39836 ft 507 kts 32°
2026-05-07 13:19 10.12462 108.88329 39836 ft 506 kts 32°
2026-05-07 13:19 10.18340 108.92271 39838 ft 506 kts 32°
2026-05-07 13:20 10.24235 108.96226 39838 ft 506 kts 32°
2026-05-07 13:20 10.30119 109.00175 39836 ft 506 kts 32°
2026-05-07 13:21 10.36004 109.04126 39845 ft 506 kts 32°
2026-05-07 13:21 10.41855 109.08058 39838 ft 503 kts 32°
2026-05-07 13:22 10.47634 109.11942 39841 ft 502 kts 32°
2026-05-07 13:22 10.53474 109.15869 39839 ft 503 kts 32°
2026-05-07 13:23 10.59282 109.19776 39842 ft 503 kts 32°
2026-05-07 13:23 10.65119 109.23704 39842 ft 503 kts 32°
2026-05-07 13:24 10.70956 109.27636 39848 ft 503 kts 32°
2026-05-07 13:24 10.76798 109.31572 39844 ft 502 kts 32°
2026-05-07 13:25 10.82610 109.35489 39846 ft 502 kts 32°
2026-05-07 13:25 10.88448 109.39425 39845 ft 502 kts 32°
2026-05-07 13:26 10.94272 109.43354 39849 ft 502 kts 32°
2026-05-07 13:26 11.00054 109.47256 39848 ft 503 kts 32°
2026-05-07 13:27 11.05906 109.51208 39852 ft 504 kts 32°
2026-05-07 13:27 11.11751 109.55157 39850 ft 504 kts 32°
2026-05-07 13:28 11.17596 109.59108 39850 ft 504 kts 32°
2026-05-07 13:28 11.23440 109.63060 39853 ft 504 kts 32°
2026-05-07 13:29 11.29283 109.67014 39853 ft 504 kts 32°
2026-05-07 13:29 11.35060 109.70924 39852 ft 504 kts 32°
2026-05-07 13:30 11.40907 109.74884 39859 ft 503 kts 32°
2026-05-07 13:30 11.46720 109.78824 39859 ft 503 kts 32°
2026-05-07 13:31 11.52519 109.82755 39860 ft 504 kts 32°
2026-05-07 13:31 11.58342 109.86704 39858 ft 504 kts 32°
2026-05-07 13:32 11.64199 109.90679 39858 ft 504 kts 32°
2026-05-07 13:32 11.70028 109.94637 39862 ft 504 kts 32°
2026-05-07 13:33 11.75868 109.98604 39860 ft 502 kts 32°
2026-05-07 13:33 11.80738 110.01914 39861 ft 502 kts 32°
2026-05-07 13:34 11.89456 110.07844 39862 ft 502 kts 32°
2026-05-07 13:35 11.95277 110.11805 39862 ft 502 kts 32°
2026-05-07 13:35 12.01100 110.15770 39861 ft 502 kts 32°
2026-05-07 13:36 12.06867 110.19698 39864 ft 500 kts 32°
2026-05-07 13:36 12.12652 110.23641 39860 ft 500 kts 33°
2026-05-07 13:37 12.18441 110.27589 39867 ft 500 kts 32°
2026-05-07 13:37 12.24228 110.31538 39864 ft 500 kts 33°
2026-05-07 13:38 12.30023 110.35494 39867 ft 500 kts 33°
2026-05-07 13:38 12.35764 110.39415 39868 ft 499 kts 33°
2026-05-07 13:39 12.41543 110.43365 39866 ft 498 kts 32°
2026-05-07 13:39 12.47304 110.47305 39868 ft 498 kts 33°
2026-05-07 13:40 12.53047 110.51234 39868 ft 498 kts 32°
2026-05-07 13:40 12.58848 110.55205 39874 ft 498 kts 32°
2026-05-07 13:41 12.64577 110.59129 39873 ft 499 kts 33°
2026-05-07 13:41 12.70352 110.63086 39873 ft 498 kts 33°
2026-05-07 13:42 12.76107 110.67032 39875 ft 497 kts 33°
2026-05-07 13:42 12.81817 110.70950 39875 ft 497 kts 33°
2026-05-07 13:43 12.87571 110.74900 39876 ft 497 kts 33°
2026-05-07 13:43 12.93342 110.78864 39876 ft 497 kts 33°
2026-05-07 13:44 12.99083 110.82809 39880 ft 497 kts 33°
2026-05-07 13:44 13.04806 110.86744 39878 ft 497 kts 33°
2026-05-07 13:45 13.10546 110.90693 39878 ft 497 kts 33°
2026-05-07 13:45 13.16292 110.94649 39879 ft 497 kts 33°
2026-05-07 13:46 13.22050 110.98615 39877 ft 497 kts 33°
2026-05-07 13:46 13.27763 111.02552 39878 ft 497 kts 33°
2026-05-07 13:47 13.33510 111.06515 39878 ft 497 kts 33°
2026-05-07 13:47 13.39247 111.10474 39878 ft 497 kts 33°
2026-05-07 13:48 13.44969 111.14424 39883 ft 497 kts 33°
2026-05-07 13:48 13.50701 111.18383 39880 ft 497 kts 33°
2026-05-07 13:49 13.56443 111.22353 39884 ft 497 kts 33°
2026-05-07 13:49 13.62176 111.26317 39887 ft 496 kts 33°
2026-05-07 13:50 13.67918 111.30291 39884 ft 497 kts 33°
2026-05-07 13:50 13.73650 111.34260 39884 ft 497 kts 33°
2026-05-07 13:51 13.79393 111.38239 39885 ft 497 kts 33°
2026-05-07 13:51 13.85089 111.42188 39886 ft 497 kts 33°
2026-05-07 13:52 13.90852 111.46186 39889 ft 497 kts 33°
2026-05-07 13:52 13.96559 111.50147 39889 ft 497 kts 33°
2026-05-07 13:53 14.02298 111.54133 39889 ft 497 kts 33°
2026-05-07 13:53 14.08034 111.58119 39887 ft 497 kts 33°
2026-05-07 13:54 14.13784 111.62118 39884 ft 497 kts 33°
2026-05-07 13:54 14.19515 111.66105 39889 ft 497 kts 33°
2026-05-07 13:55 14.25229 111.70084 39889 ft 497 kts 33°
2026-05-07 13:55 14.30963 111.74079 39889 ft 497 kts 33°
2026-05-07 13:56 14.36707 111.78083 39892 ft 497 kts 33°
2026-05-07 13:56 14.42446 111.82086 39891 ft 497 kts 33°
2026-05-07 13:57 14.48136 111.86058 39893 ft 496 kts 33°
2026-05-07 13:57 14.53862 111.90057 39892 ft 496 kts 33°
2026-05-07 13:58 14.59591 111.94061 39890 ft 496 kts 33°
2026-05-07 13:58 14.65321 111.98068 39892 ft 497 kts 33°
2026-05-07 13:59 14.71009 112.02049 39894 ft 497 kts 33°
2026-05-07 13:59 14.76732 112.06056 39895 ft 497 kts 33°
2026-05-07 14:00 14.82468 112.10075 39896 ft 497 kts 33°
2026-05-07 14:00 14.88192 112.14088 39899 ft 497 kts 33°
2026-05-07 14:01 14.93877 112.18077 39845 ft 496 kts 33°
2026-05-07 14:01 14.96743 112.20089 39643 ft 496 kts 33°
2026-05-07 14:01 14.99603 112.22097 39422 ft 497 kts 33°
2026-05-07 14:01 15.02456 112.24101 39197 ft 498 kts 33°
2026-05-07 14:02 15.05342 112.26129 38994 ft 498 kts 33°
2026-05-07 14:02 15.08213 112.28146 38792 ft 499 kts 33°
2026-05-07 14:02 15.11090 112.30169 38574 ft 500 kts 33°
2026-05-07 14:02 15.13971 112.32195 38331 ft 500 kts 33°
2026-05-07 14:03 15.16812 112.34194 38088 ft 501 kts 33°
2026-05-07 14:03 15.19704 112.36229 37912 ft 502 kts 32°
2026-05-07 14:03 15.22607 112.38273 37899 ft 504 kts 33°
2026-05-07 14:04 15.28412 112.42362 37897 ft 505 kts 33°
2026-05-07 14:04 15.34177 112.46426 37898 ft 504 kts 33°
2026-05-07 14:05 15.39975 112.50516 37897 ft 503 kts 33°
2026-05-07 14:05 15.45773 112.54608 37897 ft 503 kts 33°
2026-05-07 14:06 15.51564 112.58699 37899 ft 503 kts 33°
2026-05-07 14:06 15.57362 112.62796 37901 ft 503 kts 33°
2026-05-07 14:07 15.63154 112.66893 37901 ft 504 kts 33°
2026-05-07 14:07 15.68947 112.70994 37903 ft 504 kts 33°
2026-05-07 14:08 15.74723 112.75085 37900 ft 504 kts 33°
2026-05-07 14:08 15.80515 112.79191 37906 ft 503 kts 33°
2026-05-07 14:09 15.86295 112.83290 37905 ft 503 kts 33°
2026-05-07 14:09 15.92041 112.87369 37906 ft 503 kts 33°
2026-05-07 14:10 15.97827 112.91478 37907 ft 503 kts 33°
2026-05-07 14:10 16.03593 112.95577 37905 ft 503 kts 33°
2026-05-07 14:11 16.09334 112.99660 37908 ft 503 kts 33°
2026-05-07 14:11 16.15119 113.03778 37908 ft 503 kts 33°
2026-05-07 14:12 16.20895 113.07892 37909 ft 503 kts 33°
2026-05-07 14:12 16.26678 113.12015 37908 ft 503 kts 33°
2026-05-07 14:13 16.32447 113.16131 37905 ft 502 kts 33°
2026-05-07 14:13 16.38227 113.20257 37906 ft 502 kts 33°
2026-05-07 14:14 16.43983 113.24369 37909 ft 502 kts 33°
2026-05-07 14:14 16.49707 113.28461 37908 ft 502 kts 33°
2026-05-07 14:15 16.55501 113.32606 37913 ft 502 kts 33°
2026-05-07 14:15 16.61229 113.36708 37914 ft 502 kts 33°
2026-05-07 14:16 16.66988 113.40834 37911 ft 502 kts 33°
2026-05-07 14:16 16.72755 113.44970 37913 ft 503 kts 33°
2026-05-07 14:17 16.78529 113.49113 37911 ft 503 kts 33°
2026-05-07 14:17 16.84298 113.53255 37911 ft 503 kts 33°
2026-05-07 14:18 16.90019 113.57367 37914 ft 503 kts 33°
2026-05-07 14:18 16.95778 113.61508 37914 ft 503 kts 33°
2026-05-07 14:19 17.01543 113.65658 37914 ft 503 kts 33°
2026-05-07 14:19 17.07330 113.69826 37913 ft 504 kts 33°
2026-05-07 14:20 17.13113 113.73995 37914 ft 504 kts 33°
2026-05-07 14:20 17.18884 113.78158 37914 ft 504 kts 33°
2026-05-07 14:21 17.24632 113.82308 37916 ft 505 kts 33°
2026-05-07 14:21 17.30421 113.86491 37914 ft 505 kts 33°
2026-05-07 14:22 17.36199 113.90669 37915 ft 505 kts 33°
2026-05-07 14:22 17.40999 113.94142 37917 ft 504 kts 33°
2026-05-07 14:23 17.46745 113.98303 37914 ft 504 kts 33°
2026-05-07 14:23 17.52563 114.02519 37914 ft 504 kts 33°
2026-05-07 14:24 17.58323 114.06697 37918 ft 505 kts 33°
2026-05-07 14:24 17.64072 114.10869 37916 ft 505 kts 33°
2026-05-07 14:25 17.69896 114.15100 37916 ft 505 kts 33°
2026-05-07 14:25 17.75629 114.19268 37916 ft 505 kts 33°
2026-05-07 14:26 17.81411 114.23475 37920 ft 505 kts 33°
2026-05-07 14:26 17.87210 114.27643 37924 ft 505 kts 30°
2026-05-07 14:27 17.93058 114.31754 37921 ft 507 kts 30°
2026-05-07 14:27 17.98895 114.35943 37919 ft 507 kts 31°
2026-05-07 14:28 18.04660 114.40144 37920 ft 507 kts 31°
2026-05-07 14:28 18.10484 114.44405 37922 ft 506 kts 31°
2026-05-07 14:29 18.16249 114.48625 37927 ft 506 kts 31°
2026-05-07 14:29 18.22141 114.52709 37927 ft 504 kts 24°
2026-05-07 14:30 18.27489 114.54926 37924 ft 498 kts 12°